Weather History for McCook, NE

Change the Weather History Date:

Wednesday, January 9, 2013

  Actual Average Record
Temperature  
Mean Temperature 30 °F 27 °F  
Max Temperature 41 °F 40 °F 71 °F (1933)
Min Temperature 19 °F 14 °F -13 °F (1937)
Degree Days  
Heating Degree Days 36    
Moisture  
Dew Point 23 °F    
Average Humidity 77    
Maximum Humidity 89    
Minimum Humidity 60    
Precipitation  
Precipitation 0.00 in 0.02 in 0.79 in (1993)
Month to date precipitation T 0.16  
Year to date precipitation T 0.16  
Sea Level Pressure  
Sea Level Pressure 30.36 in    
Wind  
Wind Speed 7 mph (SW)    
Max Wind Speed 13 mph    
Max Gust Speed -    
Visibility 10 miles    
Events      
T = Trace of Precipitation, MM = Missing Value Source: NWS Daily Summary

Daily Weather History Graph

Daily Weather History Graph

Search for Another Location

Airport:

Trip Planner

Search our weather history database for the weather conditions in past years. The results will help you decide how hot, cold, wet, or windy it might be!

Date:

Astronomy

Jan. 09, 2013 Rise Set
Actual Time 8:04 AM CST 5:35 PM CST
Civil Twilight 7:34 AM CST 6:05 PM CST
Nautical Twilight 7:00 AM CST 6:38 PM CST
Astronomical Twilight 6:27 AM CST 7:11 PM CST
Moon 5:45 AM CST (1/9) 3:38 PM CST (1/9)
Length of Visible Light 10h 30m
Length of Day
9h 30m
Waning Crescent, 6% of the Moon is Illuminated
Jan 9
Waning Crescent
Jan 11
New
Jan 18
First Quarter
Jan 26
Full
Feb 3
Last Quarter

Hourly Weather History & Observations

Time (CST) Temp. Windchill Dew Point Humidity Pressure Visibility Wind Dir Wind Speed Gust Speed Precip Events Conditions
12:53 AM 25.0 °F 14.2 °F 21.9 °F 88% 30.32 in 10.0 mi WSW 11.5 mph - N/A   Clear
1:53 AM 25.0 °F 16.3 °F 21.0 °F 85% 30.31 in 10.0 mi West 8.1 mph - N/A   Clear
2:53 AM 24.1 °F 19.7 °F 19.9 °F 84% 30.32 in 10.0 mi SSW 3.5 mph - N/A   Clear
3:53 AM 21.0 °F 8.6 °F 17.1 °F 85% 30.31 in 10.0 mi NW 12.7 mph - N/A   Clear
4:53 AM 19.9 °F 12.1 °F 17.1 °F 89% 30.32 in 10.0 mi SW 5.8 mph - N/A   Clear
5:53 AM 21.9 °F 10.4 °F 18.0 °F 85% 30.35 in 10.0 mi West 11.5 mph - N/A   Clear
6:53 AM 19.9 °F 9.3 °F 16.0 °F 85% 30.40 in 10.0 mi West 9.2 mph - N/A   Clear
7:53 AM 21.0 °F 12.4 °F 17.1 °F 85% 30.45 in 10.0 mi SW 6.9 mph - N/A   Clear
8:53 AM 21.2 °F 16.4 °F 17.6 °F 86% 30.38 in 10.0 mi West 3.5 mph - N/A   Clear
9:53 AM 21.9 °F 13.4 °F 18.0 °F 85% 30.50 in 10.0 mi SW 6.9 mph - N/A   Clear
10:53 AM 28.9 °F 22.8 °F 21.0 °F 72% 30.49 in 10.0 mi WSW 5.8 mph - N/A   Clear
11:53 AM 32.0 °F - 23.0 °F 69% 30.46 in 10.0 mi Calm Calm - N/A   Clear
12:53 PM 37.0 °F - 27.0 °F 67% 30.40 in 10.0 mi Calm Calm - N/A   Clear
1:53 PM 39.0 °F - 27.0 °F 62% 30.37 in 10.0 mi Calm Calm - N/A   Clear
2:53 PM 39.9 °F - 27.0 °F 60% 30.35 in 10.0 mi Calm Calm - N/A   Clear
3:53 PM 39.0 °F - 28.9 °F 67% 30.34 in 10.0 mi Calm Calm - N/A   Clear
4:53 PM 37.0 °F 33.3 °F 28.0 °F 70% 30.33 in 10.0 mi NNE 4.6 mph - N/A   Clear
5:53 PM 36.0 °F 32.1 °F 28.0 °F 73% 30.32 in 10.0 mi East 4.6 mph - N/A   Clear
6:53 PM 37.9 °F 34.4 °F 28.9 °F 70% 30.32 in 10.0 mi South 4.6 mph - N/A   Clear
7:53 PM 37.9 °F 32.1 °F 30.0 °F 73% 30.32 in 10.0 mi SSE 8.1 mph - N/A   Clear
8:53 PM 34.0 °F 28.0 °F 28.0 °F 79% 30.33 in 10.0 mi South 6.9 mph - N/A   Clear
9:53 PM 35.1 °F 27.4 °F 28.0 °F 76% 30.32 in 10.0 mi South 10.4 mph - N/A   Clear
10:53 PM 34.0 °F 26.6 °F 27.0 °F 75% 30.31 in 10.0 mi South 9.2 mph - N/A   Clear
11:53 PM 34.0 °F 26.6 °F 26.1 °F 73% 30.30 in 10.0 mi South 9.2 mph - N/A   Clear